Stations météo

Publicité
Lulea/Kallax, Suède (2186): Température de l'air & dewpoint: 25.09.2020 10:00:00 - 01.10.2020 10:00:00 (CEST)Lulea/Kallax, Suède (2186): Vitesse du vent & gusts: 25.09.2020 10:00:00 - 01.10.2020 10:00:00 (CEST)Lulea/Kallax, Suède (2186): Direction du vent: 25.09.2020 10:00:00 - 01.10.2020 10:00:00 (CEST)Lulea/Kallax, Suède (2186): reduced air pressure: 25.09.2020 10:00:00 - 01.10.2020 10:00:00 (CEST)Lulea/Kallax, Suède (2186): visibility: 25.09.2020 10:00:00 - 01.10.2020 10:00:00 (CEST)Lulea/Kallax, Suède (2186): Quantités de précipitations: 25.09.2020 10:00:00 - 01.10.2020 10:00:00 (CEST)
Date & Time tt [°C] td [°C] ff [km/h] ff [knt] fx [km/h] fx [knt] dd ppp [hPa] vv [km] rr [mm]
01.10.2020 10:00:00 10,2 10,2 9 5 18 10 SSW 1021,6 0,8 0,0
01.10.2020 09:00:00 10,0 10,0 8 4 11 6 S 1021,3 1,0 0,0
01.10.2020 08:00:00 9,9 9,9 5 3 7 4 SSW 1021,0 0,3 0,0
01.10.2020 07:00:00 9,9 9,9 5 3 11 6 SSW 1020,8 0,3 0,0
01.10.2020 06:00:00 10,0 10,0 5 3 11 6 SSW 1020,5 0,4 0,0
01.10.2020 05:00:00 10,0 10,0 8 4 11 6 S 1020,4 0,6 0,0
01.10.2020 04:00:00 10,1 10,1 5 3 7 4 ESE 1020,2 0,1 0,0
01.10.2020 03:00:00 10,2 10,2 5 3 7 4 S 1020,2 0,2 0,0
01.10.2020 02:00:00 10,3 10,3 4 2 14 8 S 1020,3 0,3 0,0
01.10.2020 01:00:00 10,4 10,4 9 5 14 8 S 1020,6 0,2 0,0
01.10.2020 00:00:00 10,6 10,6 8 4 14 8 S 1020,6 0,5 0,0
30.09.2020 23:00:00 10,6 10,6 8 4 11 6 S 1020,5 7 0,0
30.09.2020 22:00:00 10,7 10,7 9 5 11 6 SSE 1020,6 2,0 0,0
30.09.2020 21:00:00 10,6 10,6 4 2 14 8 SSE 1020,6 0,2 0,0
30.09.2020 20:00:00 10,6 10,6 9 5 11 6 SSE 1020,4 0,2 0,0
30.09.2020 19:00:00 10,7 10,7 9 5 14 8 SE 1020,3 0,4 0,0
30.09.2020 18:00:00 10,6 10,6 9 5 18 10 S 1020,2 0,4 0,0
30.09.2020 17:00:00 10,7 10,7 11 6 18 10 SSW 1020,1 0,8 0,0
30.09.2020 16:00:00 10,6 10,6 13 7 18 10 S 1020,0 0,5 0,0
30.09.2020 15:00:00 10,7 10,7 9 5 18 10 S 1019,9 3,5 0,0
30.09.2020 14:00:00 10,6 10,6 11 6 18 10 S 1019,9 0,5 0,0
30.09.2020 13:00:00 10,8 10,8 11 6 14 8 SSE 1019,9 0,4 0,0
30.09.2020 12:00:00 10,6 10,6 9 5 14 8 SSE 1020,0 0,5 0,0
30.09.2020 11:00:00 10,5 10,5 8 4 14 8 SE 1019,9 1,2 0,3
30.09.2020 10:00:00 9,9 9,9 9 5 14 8 SSE 1019,9 0,6 0,0
30.09.2020 09:00:00 9,0 8,9 8 4 11 6 E 1019,7 0,7 0,0
30.09.2020 08:00:00 8,6 8,5 0 0 7 4 N 1019,7 1,7 0,0
30.09.2020 07:00:00 8,3 8,1 4 2 7 4 E 1019,4 2,0 0,0
30.09.2020 06:00:00 8,0 7,9 0 0 11 6 N 1019,5 6 0,0
30.09.2020 05:00:00 7,9 7,8 8 4 11 6 NE 1019,4 2,5 0,0
30.09.2020 04:00:00 7,6 7,5 0 0 7 4 N 1019,9 0,4 0,0
30.09.2020 03:00:00 7,6 7,5 0 0 7 4 N 1019,9 0,2 0,0
30.09.2020 02:00:00 7,4 7,3 4 2 4 2 - 1020,1 0,4 0,0
30.09.2020 01:00:00 7,6 7,5 0 0 4 2 N 1020,2 0,1 0,0
30.09.2020 00:00:00 7,8 7,7 2 1 4 2 - 1020,3 0,1 0,0
29.09.2020 23:00:00 7,8 7,7 0 0 0 0 N 1019,9 0,2 0,0
29.09.2020 22:00:00 7,9 7,8 0 0 11 6 N 1020,1 0,4 0,0
29.09.2020 21:00:00 8,1 8,0 5 3 11 6 SSE 1020,3 0,2 0,0
29.09.2020 20:00:00 8,0 7,9 0 0 7 4 N 1020,1 0,2 0,0
29.09.2020 19:00:00 8,1 8,0 2 1 7 4 - 1019,9 0,1 0,0
29.09.2020 18:00:00 8,2 8,1 5 3 11 6 S 1019,8 0,2 0,0
29.09.2020 17:00:00 8,2 8,0 5 3 11 6 S 1019,6 0,4 0,0
29.09.2020 16:00:00 8,3 8,2 9 5 14 8 S 1019,5 0,3 0,0
29.09.2020 15:00:00 8,3 8,2 5 3 11 6 SSW 1019,5 0,3 0,0
29.09.2020 14:00:00 8,3 8,2 8 4 14 8 SSE 1019,5 0,2 0,0
29.09.2020 13:00:00 8,4 8,3 8 4 14 8 S 1019,6 0,3 0,0
29.09.2020 12:00:00 8,8 8,7 8 4 14 8 S 1019,5 0,2 0,0
29.09.2020 11:00:00 8,7 8,6 5 3 11 6 SSW 1019,3 0,3 0,0
29.09.2020 10:00:00 7,9 7,8 5 3 11 6 SSW 1019,4 0,3 0,0
29.09.2020 09:00:00 7,5 7,4 4 2 7 4 - 1019,3 0,2 0,0
29.09.2020 08:00:00 7,3 7,2 0 0 4 2 N 1018,9 0,1 0,0
29.09.2020 07:00:00 7,4 7,3 4 2 4 2 WNW 1018,6 0,1 0,0
29.09.2020 06:00:00 8,0 7,9 0 0 0 0 N 1018,6 0,2 0,0
29.09.2020 05:00:00 8,0 8,0 0 0 - - N - 0,1 -
29.09.2020 04:00:00 8,2 8,1 0 0 4 2 N 1018,8 0,3 0,0
29.09.2020 03:00:00 8,2 8,1 0 0 4 2 N 1018,8 - 0,0
29.09.2020 02:00:00 8,2 8,1 2 1 4 2 WNW 1019,1 0,1 0,0
29.09.2020 01:00:00 8,4 8,3 2 1 4 2 WNW 1019,4 0,1 0,0
29.09.2020 00:00:00 8,4 8,3 0 0 4 2 N 1019,5 0,1 0,0
28.09.2020 23:00:00 8,7 8,6 2 1 4 2 - 1019,7 0,1 0,0
28.09.2020 22:00:00 9,0 8,9 2 1 4 2 - 1020,1 0,1 0,0
28.09.2020 21:00:00 9,1 9,0 4 2 7 4 SSE 1020,1 0,1 0,0
28.09.2020 20:00:00 9,3 9,2 2 1 7 4 SSE 1020,1 0,1 0,0
28.09.2020 19:00:00 9,5 9,3 2 1 7 4 - 1020,1 0,1 0,0
28.09.2020 18:00:00 9,6 9,5 5 3 7 4 ESE 1020,1 0,1 0,0
28.09.2020 17:00:00 9,7 9,6 8 4 11 6 SE 1020,0 0,1 0,0
28.09.2020 16:00:00 10,3 10,2 5 3 11 6 SE 1020,0 0,3 0,0
28.09.2020 15:00:00 10,6 10,5 8 4 11 6 ESE 1020,2 0,3 0,0
28.09.2020 14:00:00 10,8 10,6 4 2 7 4 - 1020,6 0,3 0,0
28.09.2020 13:00:00 10,6 10,4 4 2 7 4 N 1020,6 0,3 0,0
28.09.2020 12:00:00 9,9 9,8 2 1 11 6 N 1020,6 0,7 0,0
28.09.2020 11:00:00 9,4 9,3 8 4 11 6 N 1020,8 0,6 0,0
28.09.2020 10:00:00 8,8 8,5 8 4 14 8 N 1020,4 0,2 0,0
28.09.2020 09:00:00 8,2 8,1 9 5 14 8 N 1020,5 0,2 0,0
28.09.2020 08:00:00 7,9 7,8 9 5 14 8 NNW 1020,8 0,3 0,0
28.09.2020 07:00:00 7,9 7,7 9 5 14 8 NNW 1020,7 0,3 0,0
28.09.2020 06:00:00 7,9 7,8 9 5 14 8 NNW 1020,6 0,3 0,0
28.09.2020 05:00:00 7,9 7,8 11 6 14 8 N 1020,9 0,5 0,0
28.09.2020 04:00:00 8,0 7,9 8 4 14 8 N 1021,3 1,0 0,0
28.09.2020 03:00:00 8,7 8,5 4 2 22 12 - 1021,6 2,1 0,0
28.09.2020 02:00:00 8,4 8,1 11 6 22 12 ENE 1021,8 0,7 0,2
28.09.2020 01:00:00 7,4 7,1 9 5 18 10 N 1022,5 1,2 0,2
28.09.2020 00:00:00 7,3 7,0 9 5 14 8 N 1022,9 1,4 0,0
27.09.2020 23:00:00 7,2 6,9 8 4 14 8 N 1023,0 1,9 0,5
27.09.2020 22:00:00 7,0 6,7 5 3 14 8 N 1023,5 1,6 0,3
27.09.2020 21:00:00 7,0 6,6 9 5 14 8 NNE 1023,6 9 0,0
27.09.2020 20:00:00 7,0 6,3 8 4 14 8 NNE 1023,9 10 0,0
27.09.2020 19:00:00 7,1 6,4 9 5 22 12 NNE 1024,1 10 0,1
27.09.2020 18:00:00 7,2 6,1 11 6 25 14 NNE 1024,4 10 0,1
27.09.2020 17:00:00 7,4 5,7 9 5 22 12 NE 1024,5 10 0,0
27.09.2020 16:00:00 7,5 5,5 13 7 25 14 NNE 1024,5 10 0,0
27.09.2020 15:00:00 7,3 5,2 13 7 22 12 NNE 1024,7 10 0,0
27.09.2020 14:00:00 6,7 4,4 13 7 22 12 N 1025,0 10 0,0
27.09.2020 13:00:00 6,8 4,1 11 6 22 12 N 1025,3 10 0,0
27.09.2020 12:00:00 6,6 3,4 11 6 22 12 NNE 1025,4 10 0,0
27.09.2020 11:00:00 6,4 3,2 11 6 22 12 N 1025,4 10 0,0
27.09.2020 10:00:00 6,0 2,8 11 6 25 14 N 1025,4 10 0,0
27.09.2020 09:00:00 5,6 2,2 15 8 25 14 N 1025,3 10 0,0
27.09.2020 08:00:00 5,8 2,4 13 7 22 12 N 1024,9 10 0,0
27.09.2020 07:00:00 5,8 2,3 13 7 22 12 N 1024,5 10 0,0
27.09.2020 06:00:00 6,0 2,3 13 7 25 14 N 1024,2 10 0,0
27.09.2020 05:00:00 6,1 2,0 15 8 25 14 N 1024,0 10 0,0
27.09.2020 04:00:00 6,1 2,0 15 8 29 16 N 1023,7 10 0,0
27.09.2020 03:00:00 6,0 2,0 15 8 29 16 N 1023,6 10 0,0
27.09.2020 02:00:00 6,1 1,8 16 9 29 16 N 1023,6 10 0,0
27.09.2020 01:00:00 6,6 2,3 15 8 25 14 N 1023,1 10 0,0
27.09.2020 00:00:00 6,8 2,3 11 6 25 14 N 1022,7 10 0,0
26.09.2020 23:00:00 7,1 2,9 13 7 25 14 N 1022,3 10 0,0
26.09.2020 22:00:00 7,3 3,2 11 6 22 12 N 1021,7 10 0,0
26.09.2020 21:00:00 6,9 4,0 11 6 18 10 N 1020,8 10 0,0
26.09.2020 20:00:00 6,5 4,8 8 4 18 10 N 1020,3 10 0,0
26.09.2020 19:00:00 6,7 5,0 11 6 22 12 N 1019,7 10 1,0
26.09.2020 18:00:00 7,2 4,7 9 5 22 12 N 1019,1 10 0,9
26.09.2020 17:00:00 8,1 3,9 13 7 22 12 N 1018,5 10 0,3
26.09.2020 16:00:00 7,8 4,2 15 8 25 14 N 1017,8 10 0,7
26.09.2020 15:00:00 8,2 4,0 15 8 25 14 N 1017,2 10 0,0
26.09.2020 14:00:00 8,2 4,0 13 7 29 16 N 1016,8 10 0,0
26.09.2020 13:00:00 7,9 4,1 18 10 29 16 N 1016,6 10 0,0
26.09.2020 12:00:00 7,5 4,5 13 7 25 14 N 1016,2 10 0,0
26.09.2020 11:00:00 7,3 4,0 11 6 22 12 N 1015,9 10 0,2
26.09.2020 10:00:00 6,9 3,4 13 7 22 12 N 1015,2 10 0,0
26.09.2020 09:00:00 7,0 3,1 11 6 25 14 NNE 1014,6 10 0,0
26.09.2020 08:00:00 6,7 3,0 11 6 18 10 N 1015,1 10 0,0
26.09.2020 07:00:00 6,5 2,8 9 5 18 10 N 1014,7 10 0,0
26.09.2020 06:00:00 6,4 2,8 11 6 22 12 N 1014,0 10 0,0
26.09.2020 05:00:00 6,3 2,9 11 6 22 12 N 1013,9 10 0,0
26.09.2020 04:00:00 6,2 3,0 11 6 22 12 N 1013,9 10 0,0
26.09.2020 03:00:00 6,8 3,4 11 6 22 12 N 1013,3 10 0,0
26.09.2020 02:00:00 7,3 3,9 15 8 22 12 N 1012,7 10 0,0
26.09.2020 01:00:00 6,5 4,5 9 5 14 8 NNW 1012,1 10 0,0
26.09.2020 00:00:00 5,2 3,5 9 5 14 8 NW 1011,5 10 0,0
25.09.2020 23:00:00 8,0 4,7 2 1 14 8 - 1011,0 10 0,0
25.09.2020 22:00:00 8,8 5,1 5 3 11 6 SW 1010,0 10 0,0
25.09.2020 21:00:00 9,2 5,0 9 5 14 8 SW 1009,0 10 0,0
25.09.2020 20:00:00 9,4 4,6 5 3 14 8 SSW 1007,9 10 0,0
25.09.2020 19:00:00 10,9 4,8 4 2 14 8 - 1007,0 10 0,0
25.09.2020 18:00:00 12,0 4,6 9 5 25 14 SW 1005,9 10 0,0
25.09.2020 17:00:00 13,5 4,7 15 8 32 18 W 1004,5 10 0,0
25.09.2020 16:00:00 14,3 5,0 13 7 32 18 SW 1003,2 10 0,0
25.09.2020 15:00:00 13,3 7,3 26 14 36 19 SSW 1001,7 10 0,0
25.09.2020 14:00:00 13,4 7,4 18 10 29 16 S 1000,9 10 0,0
25.09.2020 13:00:00 13,7 7,8 21 11 32 18 S 1000,1 10 0,0
25.09.2020 12:00:00 12,8 8,9 21 11 32 18 S 999,3 10 0,0
25.09.2020 11:00:00 12,5 8,2 18 10 32 18 S 998,7 10 0,0
25.09.2020 10:00:00 11,6 9,9 21 11 32 18 S 997,8 10 0,0

tt = Température de l'air
td = dewpoint
ff = Vitesse du vent
fx = gusts
dd = Direction du vent
ppp = reduced air pressure
vv = visibility
rr = Quantités de précipitations

stations d'obs. à proximité